Wind_Speed
26 27 27 27 27 27 27 27 28 28 28 28 28 28 28 28 28 28 27 27 26 26 26 25 26 26 25 25 26 26 26 26 27 26 26 26 26 26 26 26 26 26 26
27 27 28 28 28 28 28 28 28 28 29 29 29 29 30 30 29 29 28 28 28 27 27 27 27 26 27 26 27 27 27 27 27 27 26 26 26 26 26 26 26 26 26
27 27 28 28 28 28 28 29 29 29 30 30 30 30 30 31 30 30 30 29 29 28 28 28 28 28 28 28 28 28 27 28 28 27 26 27 26 26 26 26 26 26 27
27 27 28 28 28 29 29 29 30 30 31 31 31 31 30 30 31 31 31 30 30 29 29 29 30 30 29 29 29 28 28 28 28 28 27 27 27 26 26 26 26 26 27
27 27 28 28 29 29 29 30 31 31 31 31 31 31 31 31 31 31 31 31 31 31 31 30 30 30 30 29 29 29 29 29 29 28 28 28 27 27 27 28 27 27 28
27 28 29 29 29 30 30 30 31 31 31 31 31 31 31 31 31 31 31 32 32 32 31 30 30 30 30 30 29 29 28 29 29 29 28 28 28 28 28 28 29 29 28
28 28 29 29 29 30 30 30 31 31 32 32 31 31 31 32 32 33 32 31 32 31 31 30 30 30 29 29 30 30 29 29 29 29 29 29 30 29 29 29 29 29 29
28 29 29 29 29 30 30 31 31 31 31 31 31 31 32 32 32 32 31 31 31 32 32 31 31 31 30 29 29 29 29 29 29 29 29 29 29 29 28 29 30 30 30
28 29 29 30 29 29 30 31 31 31 30 31 31 31 31 31 31 31 32 31 30 31 31 31 31 31 30 30 30 29 29 29 29 29 29 30 30 30 30 30 30 31 31
28 29 29 30 30 30 30 30 30 29 29 29 29 29 29 29 30 31 30 30 30 29 30 30 30 31 31 31 30 29 29 29 29 29 29 30 30 30 30 30 30 30 31
28 28 28 29 29 29 29 29 28 27 27 28 27 28 28 28 29 29 29 29 28 28 29 28 28 28 30 30 30 30 29 29 29 29 29 29 29 29 29 29 29 29 30
28 28 28 28 28 28 28 27 27 26 26 26 26 26 26 27 27 27 28 28 29 29 29 28 28 28 28 28 28 28 28 29 29 28 28 28 28 29 29 29 30 30 30
28 28 28 27 27 27 27 26 26 26 26 26 26 26 25 25 26 26 27 28 28 28 28 29 29 29 28 29 29 28 28 28 29 28 28 28 28 28 29 29 29 29 30
27 27 27 27 26 26 26 26 26 25 26 26 26 26 25 26 25 25 26 27 28 27 28 28 29 29 29 29 29 29 29 29 29 29 29 28 29 29 30 30 30 30 30
26 26 26 26 26 26 25 25 25 25 25 25 25 25 26 26 25 25 25 26 27 27 27 28 28 28 29 29 29 30 30 29 29 29 29 29 29 29 30 30 30 30 30
25 25 25 25 25 26 26 25 25 26 25 25 25 25 25 25 25 25 25 25 25 26 26 27 28 28 28 29 29 29 29 29 29 29 29 29 29 29 29 30 30 30 30
25 25 24 24 26 26 26 26 25 26 25 25 24 25 25 25 25 24 24 24 25 25 26 26 26 27 27 27 28 29 28 28 29 29 28 28 29 28 28 28 28 29 30
25 25 24 24 24 25 25 25 25 25 26 26 26 25 25 24 24 24 24 24 24 24 25 25 26 27 27 26 27 27 27 28 28 28 29 29 29 29 29 28 28 28 29
24 24 25 25 25 25 24 25 25 25 25 25 25 25 24 24 24 24 24 24 24 24 24 25 25 25 26 26 26 27 27 27 27 28 29 29 29 29 29 29 29 28 29
24 24 25 25 24 24 24 24 24 25 25 25 25 25 24 24 24 24 24 24 24 24 24 24 24 25 25 26 26 27 27 27 27 28 29 29 30 30 30 30 29 29 29
23 23 23 23 23 24 24 24 24 24 24 24 24 24 24 24 24 23 24 24 24 24 24 24 24 25 25 26 26 26 27 27 28 28 29 30 30 30 30 29 30 30 29
23 23 23 23 24 24 24 24 24 23 23 23 23 23 24 23 24 24 24 24 24 24 24 24 24 25 25 25 26 26 26 27 27 28 28 29 30 30 30 30 30 30 30
25 24 24 24 24 24 24 23 23 23 23 23 23 23 24 25 25 25 25 25 25 25 25 26 26 25 25 25 25 26 26 27 27 28 28 29 30 30 30 31 31 31 32
25 25 24 24 24 24 23 22 23 23 23 23 23 24 24 24 25 25 25 25 25 25 26 26 26 26 26 26 26 26 27 27 28 28 29 29 29 30 30 31 31 31 31
25 24 24 24 24 24 24 24 24 23 23 23 24 24 24 25 25 25 25 24 25 25 26 27 27 27 27 26 27 28 28 29 29 30 30 30 30 30 30 31 31 32 32
24 24 24 24 24 24 24 24 24 24 24 24 24 25 25 25 25 25 24 24 25 25 26 27 28 28 27 27 28 28 29 30 30 31 31 31 31 32 32 32 31 32 33
Wind_Direction
274 275 275 274 275 276 274 272 271 271 272 272 272 271 270 271 272 273 273 271 272 271 271 270 271 270 270 270 270 270 270 270 269 268 269 267 266 266 265 265 262 264 265
275 275 276 275 276 276 275 273 271 271 272 272 273 272 271 270 270 271 271 271 271 271 270 269 268 268 270 271 270 270 269 269 268 268 268 267 266 264 263 263 261 262 262
276 276 276 276 276 275 275 274 272 271 273 273 272 273 272 271 269 269 269 269 270 270 269 268 267 266 268 271 271 270 269 269 268 268 268 267 265 264 264 262 260 261 262
278 278 278 277 277 277 277 276 274 274 274 274 272 273 272 270 269 269 268 267 269 270 269 268 268 267 268 270 271 270 269 268 267 268 267 266 266 265 264 262 261 262 262
279 279 279 279 278 278 278 277 276 276 276 274 273 272 272 271 270 269 268 268 268 268 269 269 269 268 267 269 270 271 269 268 267 268 267 267 265 266 265 263 263 264 263
279 279 280 280 280 280 280 280 278 277 275 274 274 273 272 271 269 269 269 269 269 269 268 268 268 269 268 269 269 270 269 268 267 267 266 265 265 265 265 264 263 264 264
280 280 280 281 281 281 281 282 281 279 277 275 273 273 272 271 270 269 269 269 269 268 267 267 267 267 267 268 269 269 269 267 267 267 266 264 264 264 264 264 264 263 263
281 281 281 282 283 283 283 284 283 280 278 276 274 273 271 271 271 270 267 267 268 267 267 266 266 267 267 268 268 269 270 269 268 266 266 264 263 263 264 265 264 263 263
281 282 283 283 283 285 285 284 283 281 279 277 276 274 272 272 271 270 268 266 267 269 268 267 267 267 268 269 269 269 270 270 268 267 267 266 265 266 266 266 266 265 264
282 282 284 284 284 285 285 285 284 282 281 280 278 276 274 274 272 270 270 269 267 267 266 265 266 266 268 269 268 268 269 268 269 269 268 267 266 266 267 267 267 268 267
285 284 284 285 285 285 285 285 285 284 282 280 280 280 278 275 275 273 271 269 267 264 265 266 266 268 268 268 267 266 266 267 267 268 269 269 268 267 266 267 268 268 268
286 287 287 285 284 284 284 284 284 284 282 282 280 281 281 280 277 275 272 270 268 265 266 267 267 267 267 267 266 265 264 265 266 267 268 269 270 268 267 268 269 269 269
287 287 287 286 285 284 282 282 283 284 283 282 282 282 283 282 279 277 274 270 268 268 267 267 267 267 267 266 266 265 264 264 265 266 267 268 269 269 268 268 269 269 269
288 288 287 286 286 287 285 283 282 282 283 282 281 281 282 282 281 278 275 273 271 268 267 267 267 268 268 266 264 265 264 264 265 265 267 268 269 269 269 269 269 269 268
289 290 289 287 286 286 286 285 283 281 281 281 279 279 280 281 279 277 276 275 273 270 268 267 268 268 267 265 264 265 264 263 263 264 266 267 268 269 269 269 270 269 269
288 290 289 286 286 288 287 285 284 284 285 283 279 278 279 280 280 277 276 277 275 271 269 268 269 268 267 265 264 264 261 261 262 264 265 266 267 269 269 269 270 270 269
286 288 289 287 286 286 286 286 285 285 286 284 282 280 279 279 279 278 277 277 275 273 272 270 268 268 267 265 262 262 260 261 262 263 264 266 267 268 269 269 270 270 269
286 287 287 288 288 286 284 284 284 286 286 284 283 282 280 279 277 278 277 277 275 274 274 271 269 268 266 265 265 262 260 262 263 264 265 265 266 267 268 269 271 271 271
284 285 286 288 288 288 287 286 286 285 285 285 283 281 280 279 279 278 276 274 274 274 274 271 269 268 266 265 266 265 264 263 262 263 263 264 265 267 268 269 270 271 271
282 284 285 287 288 288 288 287 286 284 285 285 282 279 279 280 280 280 278 276 275 276 276 273 271 269 267 267 265 263 262 261 261 262 262 264 266 267 268 269 268 269 270
282 284 285 287 288 287 287 287 286 285 285 284 281 279 279 278 278 278 277 276 277 278 277 276 275 274 272 271 268 265 263 262 261 262 264 264 265 266 267 268 267 268 269
283 284 285 288 288 287 288 287 287 286 284 283 282 281 280 280 279 278 276 274 275 277 276 275 276 278 278 274 272 269 266 264 262 262 264 266 266 266 266 267 267 267 268
282 283 284 286 287 288 289 288 287 286 284 283 284 284 283 282 281 279 277 275 274 275 274 274 274 276 278 276 275 272 270 269 266 264 266 267 268 268 268 268 266 267 268
282 283 283 283 285 287 289 288 289 289 287 286 286 286 286 286 284 282 279 276 275 274 273 274 275 276 277 275 274 273 272 272 269 267 268 269 270 269 269 268 268 267 269
281 281 281 283 284 286 286 286 287 289 289 288 287 287 288 287 286 285 282 280 278 278 277 276 276 277 278 276 274 274 273 273 272 271 270 270 270 270 270 269 269 268 268
282 282 282 283 284 286 286 285 286 288 289 289 288 288 288 288 287 286 283 281 280 279 278 278 277 277 277 277 276 275 275 274 274 274 273 272 272 272 271 270 269 269 269
Height
5795 5794 5793 5792 5791 5790 5790 5789 5789 5788 5787 5787 5787 5786 5786 5786 5785 5785 5784 5783 5783 5782 5782 5782 5782 5781 5781 5781 5780 5780 5779 5779 5779 5779 5778 5778 5778 5778 5778 5778 5779 5779 5779
5787 5786 5785 5784 5783 5782 5781 5781 5780 5780 5779 5779 5778 5778 5777 5777 5776 5776 5775 5775 5775 5774 5774 5774 5774 5774 5773 5773 5772 5772 5771 5771 5771 5771 5771 5770 5770 5771 5771 5771 5771 5772 5772
5780 5779 5778 5776 5775 5774 5773 5772 5771 5771 5770 5770 5769 5769 5768 5768 5767 5767 5767 5766 5766 5766 5765 5765 5765 5765 5765 5764 5764 5763 5763 5763 5762 5763 5763 5763 5763 5763 5763 5763 5764 5764 5764
5772 5771 5770 5768 5767 5766 5764 5763 5762 5761 5761 5760 5759 5759 5758 5758 5758 5757 5757 5757 5757 5756 5756 5756 5756 5756 5756 5756 5755 5755 5754 5754 5754 5754 5754 5755 5755 5755 5755 5755 5756 5756 5757
5764 5763 5762 5760 5759 5757 5756 5754 5753 5752 5751 5750 5750 5749 5749 5748 5748 5747 5747 5747 5747 5747 5747 5747 5747 5747 5746 5746 5746 5746 5745 5745 5746 5746 5746 5746 5746 5746 5747 5747 5747 5748 5748
5757 5755 5753 5752 5750 5748 5747 5745 5743 5742 5741 5741 5740 5739 5739 5738 5738 5738 5737 5737 5737 5737 5737 5737 5737 5737 5737 5737 5737 5737 5737 5736 5736 5737 5737 5737 5738 5738 5738 5738 5738 5739 5740
5748 5747 5745 5743 5741 5739 5737 5736 5734 5732 5731 5730 5730 5729 5729 5728 5728 5728 5727 5727 5727 5727 5727 5727 5728 5728 5728 5728 5728 5728 5728 5727 5728 5728 5728 5728 5729 5729 5729 5729 5729 5730 5730
5740 5738 5736 5734 5733 5730 5728 5726 5724 5722 5721 5720 5719 5718 5718 5718 5717 5717 5717 5717 5717 5717 5717 5717 5718 5718 5719 5719 5719 5719 5719 5719 5719 5719 5719 5719 5719 5719 5720 5720 5720 5720 5721
5731 5729 5727 5725 5723 5721 5719 5716 5714 5712 5710 5709 5708 5708 5707 5707 5707 5706 5706 5706 5706 5707 5707 5708 5708 5709 5709 5710 5710 5710 5710 5709 5709 5709 5709 5710 5710 5710 5710 5710 5710 5711 5711
5722 5721 5719 5716 5714 5712 5710 5707 5705 5703 5701 5699 5698 5698 5697 5697 5696 5696 5696 5696 5697 5697 5698 5698 5699 5699 5700 5700 5700 5700 5700 5700 5700 5700 5700 5700 5700 5700 5700 5701 5701 5701 5701
5713 5711 5709 5707 5705 5703 5701 5698 5696 5694 5692 5691 5690 5689 5688 5687 5687 5686 5686 5686 5687 5687 5688 5688 5689 5690 5690 5690 5690 5691 5691 5691 5691 5691 5691 5691 5691 5691 5691 5692 5692 5692 5692
5704 5702 5700 5698 5696 5694 5692 5690 5688 5686 5684 5683 5682 5681 5680 5679 5678 5678 5677 5677 5677 5678 5678 5679 5679 5680 5680 5681 5681 5681 5682 5682 5682 5682 5682 5682 5682 5682 5682 5682 5682 5682 5682
5695 5693 5691 5689 5687 5685 5683 5681 5680 5678 5676 5675 5674 5673 5672 5671 5670 5669 5669 5668 5668 5668 5669 5669 5670 5671 5671 5672 5672 5672 5672 5673 5673 5673 5673 5673 5673 5673 5673 5673 5673 5673 5673
5686 5684 5682 5680 5678 5677 5675 5673 5672 5670 5669 5667 5666 5665 5664 5663 5662 5661 5660 5660 5659 5659 5660 5660 5661 5661 5662 5662 5662 5663 5663 5663 5663 5664 5664 5664 5663 5663 5663 5663 5663 5663 5663
5678 5676 5674 5672 5670 5669 5667 5665 5664 5662 5661 5660 5659 5658 5657 5655 5654 5653 5652 5652 5651 5651 5651 5651 5652 5652 5652 5652 5653 5653 5653 5654 5654 5654 5654 5654 5654 5654 5654 5654 5654 5654 5654
5671 5669 5666 5665 5663 5661 5659 5657 5656 5655 5653 5652 5651 5650 5649 5648 5646 5645 5644 5644 5643 5642 5642 5642 5642 5642 5643 5643 5643 5644 5644 5644 5644 5644 5644 5644 5645 5645 5645 5644 5644 5644 5644
5663 5661 5659 5657 5655 5653 5652 5650 5648 5647 5646 5645 5643 5642 5641 5640 5639 5638 5637 5636 5635 5635 5634 5633 5633 5633 5633 5633 5634 5634 5634 5635 5635 5635 5635 5635 5635 5635 5635 5635 5635 5634 5634
5655 5653 5652 5650 5648 5646 5644 5642 5641 5639 5638 5637 5636 5635 5633 5632 5631 5630 5629 5628 5627 5626 5626 5625 5625 5624 5624 5624 5624 5625 5625 5625 5625 5626 5626 5626 5626 5626 5626 5626 5626 5625 5625
5647 5646 5644 5642 5640 5638 5636 5635 5633 5632 5631 5629 5628 5627 5626 5625 5623 5622 5621 5620 5619 5619 5618 5617 5616 5616 5615 5615 5615 5615 5615 5616 5616 5616 5616 5617 5617 5617 5616 5616 5616 5616 5615
5640 5638 5637 5635 5633 5631 5629 5628 5626 5625 5623 5622 5621 5620 5618 5617 5616 5615 5614 5613 5612 5611 5610 5609 5608 5607 5607 5607 5607 5606 5606 5606 5606 5607 5607 5607 5607 5607 5607 5607 5607 5606 5606
5632 5631 5629 5627 5625 5624 5622 5620 5618 5617 5616 5615 5613 5612 5611 5610 5608 5607 5606 5605 5604 5603 5602 5601 5600 5599 5598 5598 5597 5597 5597 5596 5597 5597 5597 5598 5598 5597 5597 5597 5597 5597 5596
5624 5623 5621 5620 5618 5617 5615 5613 5611 5609 5608 5607 5605 5604 5603 5602 5600 5599 5598 5597 5596 5595 5594 5593 5592 5591 5590 5589 5589 5588 5587 5587 5587 5588 5588 5588 5588 5588 5587 5587 5587 5587 5587
5616 5615 5614 5612 5611 5609 5607 5606 5604 5602 5601 5599 5598 5597 5595 5593 5592 5591 5590 5589 5588 5587 5586 5585 5584 5583 5582 5581 5580 5579 5579 5578 5578 5578 5578 5578 5578 5578 5577 5577 5577 5577 5577
5609 5607 5606 5605 5603 5601 5600 5598 5597 5595 5593 5592 5590 5588 5587 5585 5583 5582 5581 5580 5579 5578 5577 5576 5575 5574 5573 5572 5571 5570 5569 5569 5569 5569 5569 5568 5568 5568 5568 5567 5567 5567 5567
5601 5599 5598 5597 5595 5594 5592 5590 5589 5587 5585 5584 5582 5580 5579 5577 5575 5574 5572 5571 5570 5569 5568 5567 5566 5565 5564 5562 5562 5561 5560 5559 5559 5559 5558 5559 5558 5558 5558 5557 5557 5556 5556
5593 5592 5590 5589 5587 5586 5584 5583 5581 5579 5578 5576 5574 5572 5571 5569 5567 5565 5564 5562 5561 5560 5559 5558 5557 5556 5554 5553 5552 5551 5551 5550 5549 5549 5548 5548 5548 5547 5547 5546 5546 5546 5545